This is the latest recevied weather packets stored in our database for station/object 4S6DRJ-13. If no packets are shown the sender has not sent any weather packets the latest 10 day(s).
| Time | Temp. | Humidity | Pressure | Rain* | Wind** | Luminosity | Snow |
|---|---|---|---|---|---|---|---|
| 1788336590 | 31.67° C | 68% | 1008.8 hPa | 0 mm | 0.89 m/s, 281° | 321 W/m² | - |
| 1788336529 | 31.67° C | 69% | 1008.8 hPa | 0 mm | 1.34 m/s, 281° | 316 W/m² | - |
| 1788336468 | 31.67° C | 69% | 1008.9 hPa | 0 mm | 0.89 m/s, 243° | 501 W/m² | - |
| 1788336408 | 31.67° C | 69% | 1008.7 hPa | 0 mm | 1.34 m/s, 222° | 1131 W/m² | - |
| 1788336346 | 31.67° C | 69% | 1009 hPa | 0 mm | 1.79 m/s, 195° | 479 W/m² | - |
| 1788336285 | 31.11° C | 70% | 1008.9 hPa | 0 mm | 1.34 m/s, 318° | 507 W/m² | - |
| 1788336224 | 31.11° C | 70% | 1008.9 hPa | 0 mm | 0.89 m/s, 285° | 345 W/m² | - |
| 1788336163 | 31.11° C | 70% | 1008.9 hPa | 0 mm | 0.89 m/s, 267° | 1118 W/m² | - |
| 1788336102 | 31.67° C | 69% | 1008.9 hPa | 0 mm | 1.79 m/s, 236° | 643 W/m² | - |
| 1788336041 | 31.67° C | 68% | 1009 hPa | 0 mm | 1.79 m/s, 243° | 370 W/m² | - |
| 1788335980 | 31.67° C | 67% | 1008.9 hPa | 0 mm | 2.68 m/s, 238° | 368 W/m² | - |
| 1788335919 | 31.67° C | 67% | 1009 hPa | 0 mm | 2.68 m/s, 225° | 1128 W/m² | - |
| 1788335858 | 31.67° C | 68% | 1008.9 hPa | 0 mm | 1.34 m/s, 203° | 1132 W/m² | - |
| 1788335797 | 31.11° C | 69% | 1008.9 hPa | 0 mm | 1.79 m/s, 283° | 318 W/m² | - |
| 1788335736 | 31.11° C | 68% | 1008.9 hPa | 0 mm | 0.89 m/s, 244° | 264 W/m² | - |
| 1788335675 | 31.11° C | 69% | 1008.9 hPa | 0 mm | 2.24 m/s, 211° | 1122 W/m² | - |
| 1788335614 | 31.11° C | 69% | 1009 hPa | 0 mm | 0.45 m/s, 295° | 1126 W/m² | - |
| 1788335553 | 31.11° C | 69% | 1009 hPa | 0 mm | 1.34 m/s, 215° | 1127 W/m² | - |
| 1788335492 | 31.11° C | 69% | 1009.2 hPa | 0 mm | 1.34 m/s, 251° | 1104 W/m² | - |
| 1788335431 | 31.11° C | 69% | 1008.9 hPa | 0 mm | 0.89 m/s, 7° | 345 W/m² | - |
| 1788335370 | 31.11° C | 68% | 1008.8 hPa | 0 mm | 1.34 m/s, 291° | 665 W/m² | - |
| 1788335309 | 31.67° C | 67% | 1009.1 hPa | 0 mm | 3.13 m/s, 190° | 459 W/m² | - |
| 1788335248 | 31.67° C | 67% | 1009 hPa | 0 mm | 1.79 m/s, 298° | 384 W/m² | - |
| 1788335187 | 31.67° C | 67% | 1008.9 hPa | 0 mm | 2.24 m/s, 290° | 364 W/m² | - |
| 1788335126 | 31.67° C | 66% | 1008.9 hPa | 0 mm | 0.89 m/s, 44° | 576 W/m² | - |
* Rain latest hour (hover to see other rain measurements)
** Current wind speed in m/s (hover to see current wind gust speed)